Weather History for Buckland, AK

Change the Weather History Date:

Sunday, February 10, 2013

  Actual Average (PASK) Record (PASK)
Temperature  
Mean Temperature 13 °F -  
Max Temperature 23 °F 5 °F 28 °F (2006)
Min Temperature 3 °F -4 °F -34 °F (1999)
Degree Days  
Heating Degree Days 52    
Moisture  
Dew Point 12 °F    
Average Humidity 84    
Maximum Humidity 100    
Minimum Humidity 72    
Precipitation  
Precipitation 0.00 in - - ()
Sea Level Pressure  
Sea Level Pressure 29.08 in    
Wind  
Wind Speed 11 mph (SSE)    
Max Wind Speed 36 mph    
Max Gust Speed 40 mph    
Visibility 6 miles    
Events      
Averages and records for this station are not official NWS values.
T = Trace of Precipitation, MM = Missing Value Source: NWS Daily Summary

Daily Weather History Graph

Daily Weather History Graph

Search for Another Location

Airport:

Trip Planner

Search our weather history database for the weather conditions in past years. The results will help you decide how hot, cold, wet, or windy it might be!

Date:

Astronomy

Feb. 10, 2013 Rise Set
Actual Time 10:06 AM AKST 5:52 PM AKST
Civil Twilight 9:08 AM AKST 6:50 PM AKST
Nautical Twilight 8:07 AM AKST 7:51 PM AKST
Astronomical Twilight 7:08 AM AKST 8:50 PM AKST
Moon 9:24 AM AKST (2/10) 7:46 PM AKST (2/10)
Length of Visible Light 9h 41m
Length of Day
7h 46m
New Moon, 0% of the Moon is Illuminated
Feb 10
New Moon
Feb 17
First Quarter
Feb 25
Full
Mar 4
Last Quarter
Mar 11
New

Hourly Weather History & Observations

Time (AKST) Temp. Windchill Dew Point Humidity Pressure Visibility Wind Dir Wind Speed Gust Speed Precip Events Conditions
12:16 AM 15.8 °F 5.1 °F 12.2 °F 86% 29.05 in 10.0 mi South 8.1 mph - N/A   Unknown
12:36 AM 15.8 °F 4.2 °F 12.2 °F 86% 29.04 in 4.0 mi SSE 9.2 mph - N/A   Unknown
12:56 AM 15.8 °F 5.1 °F 12.2 °F 86% 29.04 in 10.0 mi South 8.1 mph - N/A   Unknown
1:16 AM 14.0 °F 3.9 °F 10.4 °F 86% 29.04 in 10.0 mi SSE 6.9 mph - N/A   Unknown
1:36 AM 15.8 °F 7.2 °F 10.4 °F 79% 29.04 in 10.0 mi SE 5.8 mph - N/A   Unknown
1:56 AM 15.8 °F 5.1 °F 10.4 °F 79% 29.03 in 10.0 mi South 8.1 mph - N/A   Unknown
2:16 AM 14.0 °F 2.0 °F 10.4 °F 86% 29.03 in 9.0 mi SSW 9.2 mph - N/A   Unknown
2:36 AM 15.8 °F 5.1 °F 10.4 °F 79% 29.02 in 4.0 mi South 8.1 mph - N/A   Unknown
2:56 AM 14.0 °F 2.0 °F 10.4 °F 86% 29.02 in 4.0 mi SSE 9.2 mph - N/A   Unknown
3:16 AM 14.0 °F 1.2 °F 12.2 °F 93% 29.01 in 10.0 mi SSE 10.4 mph - N/A   Unknown
3:36 AM 14.0 °F 3.9 °F 12.2 °F 93% 29.01 in 10.0 mi SSE 6.9 mph - N/A   Unknown
3:56 AM 14.0 °F 5.1 °F 10.4 °F 86% 29.01 in 10.0 mi SSE 5.8 mph - N/A   Unknown
4:16 AM 14.0 °F - 10.4 °F 86% 29.01 in 10.0 mi Calm Calm - N/A   Unknown
4:36 AM 12.2 °F - 8.6 °F 85% 29.01 in 10.0 mi Calm Calm - N/A   Unknown
4:56 AM 15.8 °F 10.2 °F 12.2 °F 86% 29.00 in 10.0 mi SW 3.5 mph - N/A   Unknown
5:16 AM 15.8 °F 4.2 °F 12.2 °F 86% 29.00 in 10.0 mi SE 9.2 mph - N/A   Unknown
5:36 AM 17.6 °F 9.3 °F 12.2 °F 79% 29.00 in 10.0 mi SSE 5.8 mph - N/A   Unknown
5:56 AM 17.6 °F 12.3 °F 12.2 °F 79% 29.00 in 10.0 mi North 3.5 mph - N/A   Unknown
6:16 AM 17.6 °F - 12.2 °F 79% 29.00 in 10.0 mi Calm Calm - N/A   Unknown
6:36 AM 17.6 °F 10.7 °F 14.0 °F 86% 28.99 in 10.0 mi WSW 4.6 mph - N/A   Unknown
6:56 AM 17.6 °F 12.3 °F 12.2 °F 79% 28.99 in 10.0 mi SW 3.5 mph - N/A   Unknown
7:16 AM 17.6 °F 12.3 °F 12.2 °F 79% 28.99 in 10.0 mi South 3.5 mph - N/A   Unknown
7:36 AM 17.6 °F 12.3 °F 12.2 °F 79% 28.99 in 10.0 mi SSW 3.5 mph - N/A   Unknown
7:56 AM 17.6 °F 10.7 °F 12.2 °F 79% 28.99 in 10.0 mi South 4.6 mph - N/A   Unknown
8:16 AM 17.6 °F 12.3 °F 14.0 °F 86% 28.99 in 5.0 mi SSW 3.5 mph - N/A   Unknown
8:36 AM 17.6 °F 10.7 °F 15.8 °F 93% 28.99 in 7.0 mi SE 4.6 mph - N/A   Unknown
8:56 AM 17.6 °F - 15.8 °F 93% 28.99 in 3.0 mi Calm Calm - N/A   Unknown
9:16 AM 17.6 °F 10.7 °F 15.8 °F 93% 28.99 in 5.0 mi SE 4.6 mph - N/A   Unknown
9:36 AM 17.6 °F 9.3 °F 15.8 °F 93% 28.99 in 9.0 mi SSE 5.8 mph - N/A   Unknown
9:56 AM 19.4 °F 7.9 °F 19.4 °F 100% 28.98 in 10.0 mi ESE 10.4 mph - N/A   Unknown
10:16 AM 21.2 °F 11.7 °F 17.6 °F 86% 28.98 in 10.0 mi SE 8.1 mph - N/A   Unknown
10:36 AM 23.0 °F 10.6 °F 19.4 °F 86% 28.98 in 10.0 mi SE 13.8 mph - N/A   Unknown
10:56 AM 21.2 °F 10.1 °F 19.4 °F 93% 28.99 in 1.5 mi SE 10.4 mph - N/A   Unknown
11:16 AM 23.0 °F 11.1 °F 19.4 °F 86% 28.99 in 1.0 mi SE 12.7 mph - N/A   Unknown
11:36 AM 23.0 °F 10.6 °F 21.2 °F 93% 29.00 in 1.2 mi SE 13.8 mph - N/A   Unknown
11:56 AM 21.2 °F 8.9 °F 19.4 °F 93% 29.00 in 1.2 mi SE 12.7 mph - N/A   Unknown
12:16 PM 21.2 °F 9.5 °F 21.2 °F 100% 29.00 in 1.2 mi SE 11.5 mph - N/A   Unknown
12:36 PM 23.0 °F 9.6 °F 19.4 °F 86% 29.00 in 5.0 mi ESE 16.1 mph 21.9 mph N/A   Unknown
12:56 PM 23.0 °F 9.6 °F 19.4 °F 86% 29.00 in 6.0 mi ESE 16.1 mph 20.7 mph N/A   Unknown
1:16 PM 23.0 °F 10.1 °F 19.4 °F 86% 29.00 in 10.0 mi ESE 15.0 mph - N/A   Unknown
1:36 PM 23.0 °F 9.2 °F 19.4 °F 86% 29.00 in 3.0 mi ESE 17.3 mph 24.2 mph N/A   Unknown
1:56 PM 23.0 °F 9.6 °F 19.4 °F 86% 29.01 in 4.0 mi East 16.1 mph 23.0 mph N/A   Unknown
2:16 PM 23.0 °F 9.2 °F 19.4 °F 86% 29.02 in 4.0 mi East 17.3 mph 23.0 mph N/A   Unknown
2:36 PM 23.0 °F 9.2 °F 19.4 °F 86% 29.02 in 3.0 mi ESE 17.3 mph 23.0 mph N/A   Unknown
2:56 PM 23.0 °F 8.7 °F 19.4 °F 86% 29.03 in 3.0 mi ESE 18.4 mph - N/A   Unknown
3:16 PM 23.0 °F 8.3 °F 19.4 °F 86% 29.03 in 3.0 mi ESE 19.6 mph - N/A   Unknown
3:36 PM 23.0 °F 8.7 °F 19.4 °F 86% 29.04 in 10.0 mi SE 18.4 mph 24.2 mph N/A   Unknown
3:56 PM 23.0 °F 9.2 °F 19.4 °F 86% 29.05 in 10.0 mi ESE 17.3 mph - N/A   Unknown
4:16 PM 23.0 °F 10.1 °F 19.4 °F 86% 29.06 in 10.0 mi ESE 15.0 mph - N/A   Unknown
4:36 PM 23.0 °F 8.7 °F 19.4 °F 86% 29.07 in 10.0 mi SE 18.4 mph - N/A   Unknown
4:56 PM 23.0 °F 7.2 °F 17.6 °F 80% 29.08 in 5.0 mi SSE 23.0 mph 34.5 mph N/A   Unknown
5:16 PM 19.4 °F 1.8 °F 14.0 °F 80% 29.09 in 5.0 mi SE 25.3 mph 31.1 mph N/A   Unknown
5:36 PM 15.8 °F -3.4 °F 12.2 °F 86% 29.10 in 4.0 mi SE 26.5 mph 31.1 mph N/A   Unknown
5:56 PM 15.8 °F -3.1 °F 10.4 °F 79% 29.12 in 4.0 mi SE 25.3 mph 33.4 mph N/A   Unknown
6:16 PM 14.0 °F -4.7 °F 10.4 °F 86% 29.14 in 3.0 mi SSE 23.0 mph 31.1 mph N/A   Unknown
6:36 PM 12.2 °F -8.2 °F 8.6 °F 85% 29.16 in 1.5 mi SSE 26.5 mph 34.5 mph N/A   Unknown
6:56 PM 12.2 °F -6.3 °F 8.6 °F 85% 29.19 in 4.0 mi SE 20.7 mph 33.4 mph N/A   Unknown
7:16 PM 10.4 °F -8.6 °F 6.8 °F 85% 29.21 in 7.0 mi SSE 20.7 mph 26.5 mph N/A   Unknown
7:36 PM 10.4 °F -13.2 °F 5.0 °F 79% 29.21 in 2.0 mi SSE 35.7 mph 40.3 mph N/A   Unknown
7:56 PM 10.4 °F -11.4 °F 6.8 °F 85% 29.24 in 3.0 mi SSE 28.8 mph 35.7 mph N/A   Unknown
8:16 PM 10.4 °F -10.3 °F 5.0 °F 79% 29.26 in 2.5 mi SSE 25.3 mph 35.7 mph N/A   Unknown
8:36 PM 10.4 °F -10.3 °F 3.2 °F 73% 29.27 in 3.0 mi SSE 25.3 mph 33.4 mph N/A   Unknown
8:56 PM 8.6 °F -11.0 °F 3.2 °F 79% 29.28 in 5.0 mi SSE 20.7 mph 31.1 mph N/A   Unknown
9:16 PM 8.6 °F -13.8 °F 3.2 °F 79% 29.29 in 6.0 mi SSE 28.8 mph 34.5 mph N/A   Unknown
9:36 PM 8.6 °F -14.1 °F 3.2 °F 79% 29.29 in 4.0 mi SSE 29.9 mph 35.7 mph N/A   Unknown
9:56 PM 6.8 °F -15.9 °F 1.4 °F 79% 29.30 in 2.0 mi SSE 27.6 mph 36.8 mph N/A   Unknown
10:16 PM 6.8 °F -13.8 °F 1.4 °F 79% 29.32 in 3.0 mi SSE 21.9 mph 32.2 mph N/A   Unknown
10:36 PM 6.8 °F -13.8 °F 1.4 °F 79% 29.35 in 10.0 mi SSE 21.9 mph 28.8 mph N/A   Unknown
10:56 PM 6.8 °F -14.7 °F -0.4 °F 72% 29.37 in 7.0 mi South 24.2 mph 29.9 mph N/A   Unknown
11:16 PM 5.0 °F -17.5 °F -2.2 °F 72% 29.37 in 3.0 mi SSE 25.3 mph 36.8 mph N/A   Unknown
11:36 PM 3.2 °F -20.3 °F -2.2 °F 78% 29.39 in 5.0 mi SSE 26.5 mph 32.2 mph N/A   Unknown
11:56 PM 3.2 °F -18.6 °F -2.2 °F 78% 29.41 in 3.0 mi SSE 21.9 mph 38.0 mph N/A   Unknown